| time (UTC) | temp F | wind direction | speed MPH | gust MPH | rain 1hr in | rain 24hr in | rain mn in | humidity % | barometer mb |
| 20260507200704 | 53 | 261 | 6.0 | 18.0 | 0.00 | 0.00 | 0.00 | 49 | 1004.7 |
| 20260507200204 | 53 | 293 | 9.0 | 18.0 | 0.00 | 0.00 | 0.00 | 49 | 1004.6 |
| 20260507194705 | 52 | 246 | 6.0 | 16.0 | 0.00 | 0.00 | 0.00 | 51 | 1004.5 |
| 20260507194204 | 52 | 229 | 7.0 | 17.0 | 0.00 | 0.00 | 0.00 | 51 | 1004.5 |
| 20260507192705 | 51 | 231 | 6.0 | 17.0 | 0.00 | 0.00 | 0.00 | 54 | 1004.5 |
| 20260507192205 | 51 | 296 | 7.0 | 17.0 | 0.00 | 0.00 | 0.00 | 53 | 1004.5 |
| 20260507190705 | 51 | 260 | 7.0 | 16.0 | 0.00 | 0.00 | 0.00 | 52 | 1004.5 |
| 20260507184704 | 51 | 266 | 4.0 | 15.0 | 0.00 | 0.00 | 0.00 | 55 | 1004.6 |
| 20260507184204 | 51 | 284 | 9.0 | 17.0 | 0.00 | 0.00 | 0.00 | 53 | 1004.6 |
| 20260507182705 | 51 | 302 | 6.0 | 17.0 | 0.00 | 0.00 | 0.00 | 55 | 1004.4 |
| 20260507182205 | 51 | 250 | 7.0 | 17.0 | 0.00 | 0.00 | 0.00 | 57 | 1004.5 |
| 20260507180704 | 50 | 301 | 5.0 | 16.0 | 0.00 | 0.01 | 0.00 | 58 | 1004.5 |
| 20260507180204 | 51 | 271 | 7.0 | 20.0 | 0.00 | 0.01 | 0.00 | 56 | 1004.5 |
| 20260507174705 | 52 | 232 | 7.0 | 16.0 | 0.00 | 0.01 | 0.00 | 58 | 1004.4 |
| 20260507174204 | 51 | 239 | 5.0 | 17.0 | 0.00 | 0.01 | 0.00 | 58 | 1004.4 |
| 20260507172705 | 52 | 234 | 5.0 | 15.0 | 0.00 | 0.01 | 0.00 | 58 | 1004.5 |
| 20260507172204 | 51 | 206 | 5.0 | 16.0 | 0.00 | 0.01 | 0.00 | 60 | 1004.6 |
| 20260507170704 | 50 | 227 | 6.0 | 16.0 | 0.00 | 0.02 | 0.00 | 60 | 1004.6 |
| 20260507170205 | 51 | 242 | 6.0 | 17.0 | 0.00 | 0.02 | 0.00 | 58 | 1004.8 |
| 20260507164704 | 52 | 232 | 7.0 | 14.0 | 0.00 | 0.02 | 0.00 | 60 | 1004.8 |
| 20260507164204 | 52 | 202 | 7.0 | 16.0 | 0.00 | 0.03 | 0.00 | 60 | 1004.9 |
| 20260507162704 | 52 | 230 | 6.0 | 13.0 | 0.00 | 0.04 | 0.00 | 61 | 1005.0 |
| 20260507162206 | 51 | 244 | 9.0 | 18.0 | 0.00 | 0.05 | 0.00 | 60 | 1005.0 |
| 20260507160704 | 51 | 232 | 6.0 | 17.0 | 0.00 | 0.06 | 0.00 | 61 | 1005.1 |
| 20260507154704 | 51 | 229 | 6.0 | 12.0 | 0.00 | 0.07 | 0.00 | 61 | 1005.1 |
| 20260507154204 | 51 | 230 | 6.0 | 15.0 | 0.00 | 0.07 | 0.00 | 62 | 1005.2 |
| 20260507152704 | 51 | 205 | 6.0 | 13.0 | 0.00 | 0.09 | 0.00 | 64 | 1005.1 |
| 20260507152205 | 51 | 208 | 5.0 | 18.0 | 0.00 | 0.09 | 0.00 | 67 | 1005.1 |
| 20260507150704 | 50 | 183 | 6.0 | 16.0 | 0.00 | 0.10 | 0.00 | 68 | 1005.3 |
| 20260507150204 | 50 | 229 | 5.0 | 18.0 | 0.00 | 0.11 | 0.00 | 70 | 1005.3 |
| 20260507144704 | 49 | 190 | 4.0 | 8.0 | 0.00 | 0.13 | 0.00 | 73 | 1005.3 |
| 20260507144204 | 48 | 225 | 6.0 | 20.0 | 0.00 | 0.13 | 0.00 | 73 | 1005.3 |
| 20260507142704 | 48 | 210 | 5.0 | 14.0 | 0.00 | 0.15 | 0.00 | 72 | 1005.4 |
| 20260507142204 | 48 | 211 | 5.0 | 18.0 | 0.00 | 0.16 | 0.00 | 74 | 1005.4 |
| 20260507140706 | 46 | 207 | 5.0 | 10.0 | 0.00 | 0.17 | 0.00 | 81 | 1005.4 |
| 20260507140204 | 46 | 221 | 5.0 | 10.0 | 0.00 | 0.17 | 0.00 | 83 | 1005.5 |
| 20260507134704 | 44 | 231 | 3.0 | 8.0 | 0.00 | 0.17 | 0.00 | 82 | 1005.5 |
| 20260507134204 | 44 | 214 | 3.0 | 9.0 | 0.00 | 0.18 | 0.00 | 85 | 1005.5 |
| 20260507132704 | 44 | 194 | 5.0 | 8.0 | 0.00 | 0.20 | 0.00 | 87 | 1005.6 |
| 20260507132204 | 44 | 197 | 5.0 | 10.0 | 0.00 | 0.20 | 0.00 | 87 | 1005.6 |
| 20260507130704 | 44 | 199 | 4.0 | 9.0 | 0.00 | 0.22 | 0.00 | 89 | 1005.7 |
| 20260507130204 | 44 | 196 | 4.0 | 10.0 | 0.00 | 0.22 | 0.00 | 88 | 1005.7 |
| 20260507124704 | 44 | 236 | 5.0 | 9.0 | 0.00 | 0.24 | 0.00 | 89 | 1005.7 |
| 20260507124204 | 44 | 196 | 5.0 | 10.0 | 0.00 | 0.24 | 0.00 | 90 | 1005.8 |
| 20260507122705 | 44 | 205 | 5.0 | 13.0 | 0.00 | 0.25 | 0.00 | 90 | 1005.6 |
| 20260507120704 | 45 | 211 | 4.0 | 8.0 | 0.00 | 0.28 | 0.00 | 89 | 1005.5 |
| 20260507120204 | 45 | 214 | 4.0 | 12.0 | 0.00 | 0.28 | 0.00 | 89 | 1005.5 |
| 20260507114704 | 44 | 221 | 5.0 | 10.0 | 0.00 | 0.30 | 0.00 | 90 | 1005.3 |
| 20260507114204 | 44 | 177 | 5.0 | 12.0 | 0.00 | 0.31 | 0.00 | 91 | 1005.2 |
| 20260507112704 | 44 | 175 | 6.0 | 10.0 | 0.00 | 0.32 | 0.00 | 91 | 1005.3 |
| 20260507112204 | 44 | 193 | 3.0 | 10.0 | 0.00 | 0.33 | 0.00 | 91 | 1005.4 |
| 20260507110703 | 44 | 196 | 5.0 | 8.0 | 0.00 | 0.33 | 0.00 | 92 | 1005.3 |
| 20260507110204 | 43 | 190 | 5.0 | 10.0 | 0.00 | 0.33 | 0.00 | 92 | 1005.3 |
| 20260507104704 | 43 | 183 | 4.0 | 7.0 | 0.00 | 0.35 | 0.00 | 92 | 1005.4 |
| 20260507102704 | 43 | 233 | 3.0 | 7.0 | 0.00 | 0.35 | 0.00 | 93 | 1005.6 |
| 20260507102204 | 43 | 216 | 5.0 | 8.0 | 0.00 | 0.35 | 0.00 | 92 | 1005.5 |
| 20260507100704 | 42 | 179 | 3.0 | 8.0 | 0.00 | 0.35 | 0.00 | 93 | 1005.4 |
| 20260507100204 | 42 | 185 | 5.0 | 10.0 | 0.00 | 0.35 | 0.00 | 93 | 1005.3 |
| 20260507094704 | 42 | 178 | 4.0 | 9.0 | 0.00 | 0.35 | 0.00 | 92 | 1005.1 |
| 20260507094204 | 42 | 181 | 3.0 | 6.0 | 0.00 | 0.35 | 0.00 | 92 | 1005.1 |
| 20260507092704 | 42 | 182 | 3.0 | 7.0 | 0.00 | 0.35 | 0.00 | 92 | 1005.0 |
| 20260507092203 | 42 | 188 | 2.0 | 7.0 | 0.00 | 0.35 | 0.00 | 92 | 1005.2 |
| 20260507090704 | 42 | 177 | 3.0 | 6.0 | 0.00 | 0.35 | 0.00 | 92 | 1005.1 |
| 20260507090204 | 42 | 175 | 2.0 | 8.0 | 0.00 | 0.35 | 0.00 | 92 | 1005.2 |
| 20260507084704 | 42 | 181 | 4.0 | 8.0 | 0.00 | 0.35 | 0.00 | 92 | 1005.4 |
| 20260507082704 | 42 | 183 | 4.0 | 8.0 | 0.00 | 0.35 | 0.00 | 92 | 1005.6 |
| 20260507080704 | 42 | 178 | 3.0 | 5.0 | 0.00 | 0.35 | 0.00 | 92 | 1005.5 |
| 20260507080204 | 42 | 177 | 3.0 | 9.0 | 0.00 | 0.35 | 0.00 | 92 | 1005.5 |
| 20260507074705 | 42 | 176 | 4.0 | 10.0 | 0.00 | 0.35 | 0.00 | 92 | 1005.6 |
| 20260507074205 | 42 | 184 | 3.0 | 12.0 | 0.00 | 0.35 | 0.00 | 92 | 1005.6 |
| 20260507072706 | 42 | 173 | 3.0 | 7.0 | 0.00 | 0.35 | 0.00 | 92 | 1005.5 |
| 20260507072206 | 42 | 172 | 3.0 | 7.0 | 0.00 | 0.35 | 0.00 | 92 | 1005.5 |
| 20260507070705 | 42 | 173 | 3.0 | 8.0 | 0.00 | 0.35 | 0.00 | 92 | 1005.5 |
| 20260507070206 | 42 | 172 | 3.0 | 9.0 | 0.00 | 0.35 | 0.00 | 92 | 1005.5 |
| 20260507064705 | 42 | 176 | 2.0 | 5.0 | 0.00 | 0.35 | 0.00 | 92 | 1005.6 |
| 20260507064205 | 42 | 177 | 3.0 | 7.0 | 0.00 | 0.35 | 0.00 | 92 | 1005.6 |
| 20260507062705 | 42 | 176 | 3.0 | 6.0 | 0.00 | 0.35 | 0.00 | 92 | 1005.7 |
| 20260507062205 | 42 | 177 | 3.0 | 7.0 | 0.00 | 0.35 | 0.00 | 92 | 1005.7 |
| 20260507060705 | 42 | 173 | 2.0 | 5.0 | 0.00 | 0.35 | 0.00 | 92 | 1005.8 |
| 20260507060204 | 42 | 173 | 3.0 | 6.0 | 0.00 | 0.35 | 0.00 | 92 | 1005.8 |
| 20260507054705 | 42 | 174 | 3.0 | 6.0 | 0.00 | 0.35 | 0.00 | 91 | 1006.0 |
| 20260507054205 | 42 | 174 | 3.0 | 8.0 | 0.00 | 0.35 | 0.00 | 91 | 1006.0 |
| 20260507052705 | 42 | 176 | 3.0 | 7.0 | 0.00 | 0.35 | 0.00 | 91 | 1006.4 |
| 20260507052204 | 42 | 174 | 4.0 | 10.0 | 0.00 | 0.35 | 0.00 | 91 | 1006.5 |
| 20260507050705 | 42 | 176 | 3.0 | 5.0 | 0.00 | 0.35 | 0.00 | 91 | 1006.6 |
| 20260507050205 | 42 | 177 | 3.0 | 6.0 | 0.00 | 0.35 | 0.00 | 91 | 1006.7 |
| 20260507044705 | 42 | 178 | 2.0 | 5.0 | 0.00 | 0.35 | 0.00 | 91 | 1006.8 |
| 20260507044205 | 42 | 178 | 3.0 | 6.0 | 0.00 | 0.35 | 0.00 | 91 | 1006.9 |
| 20260507042705 | 42 | 181 | 2.0 | 5.0 | 0.00 | 0.35 | 0.00 | 91 | 1007.0 |
| 20260507042206 | 42 | 182 | 3.0 | 7.0 | 0.00 | 0.35 | 0.00 | 91 | 1007.0 |
| 20260507040705 | 42 | 198 | 2.0 | 5.0 | 0.00 | 0.35 | 0.00 | 91 | 1007.2 |
| 20260507040205 | 42 | 198 | 3.0 | 6.0 | 0.00 | 0.35 | 0.00 | 91 | 1007.2 |
| 20260507034705 | 43 | 200 | 3.0 | 6.0 | 0.00 | 0.35 | 0.35 | 91 | 1007.2 |
| 20260507034205 | 43 | 207 | 2.0 | 6.0 | 0.00 | 0.35 | 0.35 | 91 | 1007.2 |
| 20260507032705 | 43 | 230 | 2.0 | 3.0 | 0.00 | 0.35 | 0.35 | 91 | 1007.3 |
| 20260507032205 | 43 | 231 | 2.0 | 3.0 | 0.00 | 0.35 | 0.35 | 91 | 1007.3 |
| 20260507030705 | 43 | 231 | 1.0 | 2.0 | 0.00 | 0.35 | 0.35 | 90 | 1007.3 |
| 20260507030205 | 43 | 231 | 1.0 | 3.0 | 0.00 | 0.35 | 0.35 | 91 | 1007.3 |
| 20260507024705 | 43 | 231 | 1.0 | 2.0 | 0.00 | 0.35 | 0.35 | 90 | 1007.4 |
| 20260507024204 | 43 | 231 | 2.0 | 3.0 | 0.00 | 0.35 | 0.35 | 90 | 1007.5 |
| 20260507022205 | 44 | 235 | 1.0 | 2.0 | 0.00 | 0.36 | 0.35 | 90 | 1007.7 |
| 20260507020705 | 44 | 235 | 0.0 | 0.0 | 0.00 | 0.36 | 0.35 | 90 | 1007.7 |
| 20260507020205 | 44 | 235 | 1.0 | 2.0 | 0.00 | 0.36 | 0.35 | 90 | 1007.7 |
| 20260507014705 | 44 | 235 | 1.0 | 2.0 | 0.00 | 0.36 | 0.35 | 90 | 1007.7 |
| 20260507014204 | 44 | 235 | 1.0 | 3.0 | 0.00 | 0.36 | 0.35 | 90 | 1007.8 |
| 20260507012705 | 44 | 235 | 2.0 | 3.0 | 0.00 | 0.36 | 0.35 | 90 | 1007.8 |
| 20260507012205 | 44 | 235 | 1.0 | 2.0 | 0.00 | 0.36 | 0.35 | 90 | 1007.7 |
| 20260507010705 | 44 | 235 | 1.0 | 2.0 | 0.00 | 0.36 | 0.35 | 89 | 1007.6 |
| 20260507010205 | 44 | 235 | 1.0 | 3.0 | 0.00 | 0.36 | 0.35 | 89 | 1007.5 |
| 20260507004705 | 44 | 235 | 1.0 | 2.0 | 0.00 | 0.36 | 0.35 | 88 | 1007.4 |
| 20260507004205 | 44 | 235 | 1.0 | 1.0 | 0.00 | 0.36 | 0.35 | 88 | 1007.4 |
| 20260507002705 | 45 | 235 | 0.0 | 1.0 | 0.00 | 0.36 | 0.35 | 87 | 1007.4 |
| 20260507002205 | 45 | 235 | 1.0 | 1.0 | 0.00 | 0.36 | 0.35 | 87 | 1007.4 |
| 20260507000704 | 45 | 235 | 1.0 | 2.0 | 0.00 | 0.36 | 0.35 | 86 | 1007.1 |
| 20260507000205 | 45 | 235 | 1.0 | 3.0 | 0.00 | 0.36 | 0.35 | 85 | 1007.1 |
| 20260506234705 | 46 | 235 | 2.0 | 3.0 | 0.00 | 0.36 | 0.35 | 85 | 1007.1 |
| 20260506234205 | 46 | 235 | 2.0 | 3.0 | 0.00 | 0.36 | 0.35 | 85 | 1007.0 |
| 20260506232705 | 46 | 235 | 3.0 | 3.0 | 0.00 | 0.36 | 0.35 | 85 | 1007.0 |
| 20260506232205 | 46 | 235 | 2.0 | 3.0 | 0.00 | 0.36 | 0.35 | 85 | 1006.9 |
| 20260506230705 | 46 | 235 | 2.0 | 3.0 | 0.00 | 0.36 | 0.35 | 85 | 1006.9 |
| 20260506230205 | 46 | 235 | 2.0 | 3.0 | 0.00 | 0.36 | 0.35 | 84 | 1007.0 |
| 20260506224705 | 46 | 235 | 2.0 | 3.0 | 0.00 | 0.36 | 0.35 | 85 | 1006.8 |
| 20260506224205 | 46 | 235 | 2.0 | 5.0 | 0.00 | 0.36 | 0.35 | 85 | 1007.0 |
| 20260506222705 | 46 | 235 | 3.0 | 5.0 | 0.00 | 0.36 | 0.35 | 84 | 1006.9 |
| 20260506222205 | 46 | 234 | 2.0 | 5.0 | 0.00 | 0.36 | 0.35 | 84 | 1006.9 |
| 20260506220705 | 46 | 234 | 2.0 | 3.0 | 0.00 | 0.36 | 0.35 | 84 | 1007.0 |
| 20260506220205 | 46 | 234 | 2.0 | 3.0 | 0.00 | 0.36 | 0.35 | 84 | 1007.0 |
| 20260506214705 | 46 | 234 | 2.0 | 3.0 | 0.00 | 0.36 | 0.35 | 84 | 1006.9 |
| 20260506214205 | 46 | 234 | 2.0 | 5.0 | 0.00 | 0.36 | 0.35 | 84 | 1007.0 |
| 20260506212704 | 47 | 234 | 3.0 | 5.0 | 0.00 | 0.36 | 0.35 | 84 | 1007.1 |
| 20260506212205 | 47 | 234 | 2.0 | 6.0 | 0.00 | 0.36 | 0.35 | 84 | 1007.1 |
| 20260506210704 | 47 | 232 | 2.0 | 3.0 | 0.00 | 0.36 | 0.35 | 82 | 1007.1 |
| 20260506210205 | 47 | 232 | 3.0 | 3.0 | 0.00 | 0.36 | 0.35 | 82 | 1007.1 |
| 20260506204704 | 47 | 232 | 2.0 | 3.0 | 0.00 | 0.36 | 0.35 | 83 | 1007.0 |
| 20260506204204 | 46 | 232 | 2.0 | 5.0 | 0.00 | 0.36 | 0.35 | 82 | 1007.0 |
| 20260506202704 | 47 | 230 | 3.0 | 5.0 | 0.00 | 0.36 | 0.35 | 82 | 1007.1 |
| 20260506202204 | 47 | 229 | 3.0 | 5.0 | 0.00 | 0.36 | 0.35 | 83 | 1007.1 |